HP1MRA-15 Weather Reports


Display with metric or nautical units.
time (UTC)temp
F
wind
direction
speed
MPH
gust
MPH
rain 1hr
in
rain 24hr
in
rain mn
in
humidity
%
barometer
mb
20260503023652 77 45 2.0 3.0 0.00 0.00 0.00 86 1004.2
20260503023152 77 45 2.0 2.0 0.00 0.00 0.00 86 1004.2
20260503022653 77 45 1.0 2.0 0.00 0.00 0.00 86 1004.2
20260503022152 77 90 2.0 4.0 0.00 0.00 0.00 86 1004.2
20260503021653 77 90 2.0 3.0 0.00 0.00 0.00 86 1004.2
20260503021152 77 90 1.0 3.0 0.00 0.00 0.00 86 1004.2
20260503020652 77 45 2.0 3.0 0.00 0.00 0.00 86 1004.2
20260503020152 77 90 1.0 2.0 0.00 0.00 0.00 86 1004.3
20260503015652 77 45 1.0 2.0 0.00 0.00 0.00 86 1004.4
20260503015152 77 45 1.0 2.0 0.00 0.00 0.00 86 1004.3
20260503014651 77 90 1.0 2.0 0.00 0.00 0.00 86 1004.3
20260503014152 76 135 0.0 3.0 0.00 0.00 0.00 86 1004.3
20260503013652 76 180 2.0 3.0 0.00 0.00 0.00 86 1004.3
20260503013152 76 135 2.0 4.0 0.00 0.00 0.00 87 1004.3
20260503012652 76 180 2.0 5.0 0.00 0.00 0.00 87 1004.4
20260503012151 76 180 2.0 5.0 0.00 0.00 0.00 87 1004.5
20260503011652 76 180 2.0 5.0 0.00 0.00 0.00 87 1004.7
20260503011151 76 135 2.0 5.0 0.00 0.00 0.00 87 1004.8
20260503010652 76 135 3.0 7.0 0.00 0.00 0.00 87 1004.9
20260503010151 76 135 5.0 8.0 0.00 0.00 0.00 87 1004.9
20260503005652 76 180 4.0 9.0 0.00 0.00 0.00 87 1005.0
20260503005151 76 135 5.0 11.0 0.00 0.00 0.00 88 1005.1
20260503004652 0 135 6.0 12.0 0.00 0.00 0.00 1005.3
20260503004151 76 180 7.0 12.0 0.00 0.00 0.00 88 1005.3
20260503003652 76 180 5.0 11.0 0.00 0.00 0.00 88 1005.2
20260503003151 76 180 9.0 14.0 0.00 0.00 0.00 89 1005.4
20260503002650 76 180 5.0 15.0 0.00 0.00 0.00 91 1005.4
20260503002150 76 135 8.0 14.0 0.00 0.00 0.00 91 1005.4
20260503001650 76 180 8.0 14.0 0.00 0.00 0.00 92 1005.4
20260503001151 76 135 6.0 15.0 0.00 0.00 0.00 92 1005.3
20260503000650 76 180 8.0 11.0 0.00 0.00 0.00 92 1005.3
20260503000151 76 135 5.0 13.0 0.00 0.00 0.00 92 1005.3
20260502235649 76 180 7.0 10.0 0.00 0.00 0.00 92 1005.4
20260502235149 76 135 7.0 13.0 0.00 0.00 0.00 92 1005.4
20260502234649 76 135 7.0 14.0 0.00 0.00 0.00 91 1005.3
20260502234148 76 135 9.0 14.0 0.00 0.00 0.00 91 1005.2
20260502233646 76 225 7.0 16.0 0.00 0.00 0.00 91 1004.9
20260502232641 76 135 7.0 20.0 0.00 0.00 0.00 91 1004.7
20260502232142 77 180 12.0 20.0 0.00 0.00 0.00 91 1004.7
20260502231641 77 180 8.0 13.0 0.00 0.00 0.00 92 1004.3
20260502231142 77 180 9.0 15.0 0.00 0.00 0.00 92 1004.3
20260502230641 77 180 5.0 8.0 0.00 0.00 0.00 91 1004.2
20260502230141 77 180 3.0 5.0 0.00 0.00 0.00 90 1003.8
20260502225641 78 180 2.0 5.0 0.00 0.00 0.00 90 1003.6
20260502225141 78 180 2.0 5.0 0.00 0.00 0.00 89 1003.5
20260502224641 78 180 2.0 5.0 0.00 0.00 0.00 89 1003.3
20260502224144 78 135 2.0 4.0 0.00 0.00 0.00 89 1003.2
20260502223641 78 225 2.0 5.0 0.00 0.00 0.00 89 1003.1
20260502223141 78 180 2.0 4.0 0.00 0.00 0.00 88 1003.0
20260502222641 78 225 3.0 5.0 0.00 0.00 0.00 88 1002.9
20260502222225 78 225 2.0 4.0 0.00 0.00 0.00 88 1002.9
20260502221725 78 225 2.0 4.0 0.00 0.00 0.00 87 1003.0
20260502221224 79 225 2.0 4.0 0.00 0.00 0.00 87 1002.9
20260502220725 79 270 1.0 2.0 0.00 0.00 0.00 87 1002.9
20260502220225 79 225 2.0 5.0 0.00 0.00 0.00 87 1002.9
20260502215725 79 225 2.0 5.0 0.00 0.00 0.00 87 1002.9
20260502215225 79 225 2.0 4.0 0.00 0.00 0.00 87 1003.0
20260502214725 79 225 2.0 5.0 0.00 0.00 0.00 87 1002.9
20260502214225 79 225 2.0 5.0 0.00 0.00 0.00 86 1002.8
20260502213724 80 225 4.0 6.0 0.00 0.00 0.00 85 1002.7
20260502213224 80 225 3.0 5.0 0.00 0.00 0.00 84 1002.5
20260502212724 80 225 1.0 2.0 0.00 0.00 0.00 84 1002.5
20260502212224 80 270 1.0 2.0 0.00 0.00 0.00 84 1002.4
20260502211725 81 225 1.0 2.0 0.00 0.00 0.00 83 1002.4
20260502211224 81 0 0.0 2.0 0.00 0.00 0.00 83 1002.4
20260502210724 81 180 0.0 2.0 0.00 0.00 0.00 83 1002.3
20260502210225 81 0 0.0 1.0 0.00 0.00 0.00 83 1002.3
20260502205724 81 0 0.0 0.0 0.00 0.00 0.00 83 1002.3
20260502205224 81 0 0.0 0.0 0.00 0.00 0.00 83 1002.3
20260502204724 81 0 0.0 0.0 0.00 0.00 0.00 83 1002.3
20260502204224 81 225 0.0 1.0 0.00 0.00 0.00 83 1002.4
20260502203724 81 0 0.0 1.0 0.00 0.00 0.00 83 1002.4
20260502203224 81 45 0.0 1.0 0.00 0.00 0.00 83 1002.4
20260502202724 81 0 0.0 0.0 0.00 0.00 0.00 83 1002.4
20260502202224 81 45 0.0 1.0 0.00 0.00 0.00 83 1002.4
20260502201724 81 0 0.0 1.0 0.00 0.00 0.00 83 1002.4
20260502201224 81 225 0.0 0.0 0.00 0.00 0.00 83 1002.4
20260502200724 81 270 0.0 1.0 0.00 0.00 0.00 83 1002.5
20260502200224 81 0 0.0 1.0 0.00 0.00 0.00 83 1002.6
20260502195723 81 0 0.0 2.0 0.00 0.00 0.00 83 1002.8
20260502195224 81 0 0.0 2.0 0.00 0.00 0.00 83 1002.9
20260502194724 81 0 0.0 2.0 0.00 0.00 0.00 83 1002.9
20260502194224 81 0 0.0 2.0 0.00 0.00 0.00 84 1002.9
20260502193724 81 270 1.0 3.0 0.00 0.00 0.00 84 1002.8
20260502193223 81 225 0.0 2.0 0.00 0.00 0.00 84 1002.8
20260502192724 81 270 1.0 3.0 0.00 0.00 0.00 85 1002.7
20260502192223 81 225 0.0 1.0 0.00 0.00 0.00 85 1002.6
20260502191723 81 270 0.0 6.0 0.00 0.00 0.00 85 1002.7
20260502191224 80 270 3.0 6.0 0.00 0.00 0.00 86 1002.7
20260502190723 81 225 3.0 8.0 0.00 0.00 0.00 86 1002.7
20260502190224 81 225 5.0 7.0 0.00 0.00 0.00 86 1002.7
20260502185723 81 180 2.0 7.0 0.00 0.00 0.00 86 1002.8
20260502185224 81 225 5.0 8.0 0.00 0.00 0.00 85 1002.9
20260502184723 82 180 4.0 10.0 0.00 0.00 0.00 84 1003.1
20260502184223 83 180 5.0 8.0 0.00 0.00 0.00 82 1003.1
20260502183723 83 135 3.0 8.0 0.00 0.00 0.00 82 1003.1
20260502183223 84 225 3.0 7.0 0.00 0.00 0.00 82 1003.0
20260502182723 85 180 1.0 2.0 0.00 0.00 0.00 82 1003.0
20260502182223 85 225 2.0 4.0 0.00 0.00 0.00 81 1002.9
20260502181723 85 0 0.0 2.0 0.00 0.00 0.00 80 1003.0
20260502181223 85 0 0.0 5.0 0.00 0.00 0.00 80 1003.1
20260502180723 85 225 2.0 5.0 0.00 0.00 0.00 81 1003.1
20260502180223 86 225 0.0 5.0 0.00 0.00 0.00 80 1003.1
20260502170222 87 225 5.0 8.0 0.00 0.00 0.00 73 1003.8
20260502164222 90 225 4.0 6.0 0.00 0.00 0.00 67 1003.7
20260502163722 90 270 2.0 4.0 0.00 0.00 0.00 69 1003.6
20260502163222 90 225 0.0 2.0 0.00 0.00 0.00 70 1003.6
20260502162723 90 270 0.0 5.0 0.00 0.00 0.00 69 1003.5
20260502162222 90 225 2.0 5.0 0.00 0.00 0.00 69 1003.5
20260502161722 90 225 1.0 5.0 0.00 0.00 0.00 70 1003.6
20260502161222 90 225 2.0 7.0 0.00 0.00 0.00 70 1003.7
20260502160722 90 180 5.0 8.0 0.00 0.00 0.00 69 1003.7
20260502160222 90 180 2.0 8.0 0.00 0.00 0.00 70 1003.7
20260502152221 87 180 4.0 7.0 0.00 0.00 0.00 75 1003.7
20260502151722 87 180 3.0 8.0 0.00 0.00 0.00 74 1003.5
20260502151222 87 225 3.0 7.0 0.00 0.00 0.00 75 1003.6
20260502150721 87 225 3.0 10.0 0.00 0.00 0.00 74 1003.7
20260502150222 88 270 7.0 11.0 0.00 0.00 0.00 72 1003.6
20260502130729 83 135 1.0 4.0 0.00 0.00 0.00 84 1002.1
20260502130229 83 135 2.0 4.0 0.00 0.00 0.00 83 1001.9
20260502123729 82 180 2.0 3.0 0.00 0.00 0.00 84 1001.5
20260502123229 83 45 1.0 3.0 0.00 0.00 0.00 84 1001.4
20260502122729 83 225 1.0 2.0 0.00 0.00 0.00 84 1001.2
20260502122230 82 0 0.0 2.0 0.00 0.00 0.00 86 1001.2
20260502121727 82 135 0.0 2.0 0.00 0.00 0.00 86 1001.3
20260502121227 82 45 0.0 0.0 0.00 0.00 0.00 87 1001.3
20260502120727 81 90 0.0 1.0 0.00 0.00 0.00 88 1001.3
20260502120226 80 45 0.0 4.0 0.00 0.00 0.00 88 1001.3
20260502115724 80 0 1.0 4.0 0.00 0.00 0.00 88 1001.1
20260502114925 80 45 2.0 2.0 0.00 0.00 0.00 88 1001.3
20260502114426 79 45 1.0 5.0 0.00 0.00 0.00 88 1001.3
20260502113925 79 0 2.0 5.0 0.00 0.00 0.00 88 1001.2
20260502113425 79 45 2.0 3.0 0.00 0.00 0.00 88 1001.1
20260502112925 79 45 0.0 2.0 0.00 0.00 0.00 88 1001.2
20260502112425 79 45 0.0 2.0 0.00 0.00 0.00 88 1001.1
20260502111925 79 45 1.0 2.0 0.00 0.00 0.00 87 1001.2
20260502111425 79 135 1.0 3.0 0.00 0.00 0.00 87 1001.0
20260502110925 79 45 1.0 2.0 0.00 0.00 0.00 87 1000.8
20260502110426 79 90 0.0 1.0 0.00 0.00 0.00 87 1000.8
20260502105925 79 0 0.0 2.0 0.00 0.00 0.00 87 1000.9
20260502105424 79 0 2.0 5.0 0.00 0.00 0.00 87 1001.0
20260502104925 79 0 2.0 5.0 0.00 0.00 0.00 87 1000.9
20260502104425 79 0 1.0 2.0 0.00 0.00 0.00 88 1000.9
20260502103925 79 0 0.0 2.0 0.00 0.00 0.00 88 1000.9
20260502103425 79 0 0.0 4.0 0.00 0.00 0.00 88 1000.9
20260502102923 79 0 2.0 3.0 0.00 0.00 0.00 88 1000.8
20260502102425 79 45 2.0 5.0 0.00 0.00 0.00 88 1000.9
20260502101924 79 45 3.0 5.0 0.00 0.00 0.00 87 1000.7
20260502101425 79 45 3.0 5.0 0.00 0.00 0.00 87 1000.4
20260502100924 79 45 1.0 2.0 0.00 0.00 0.00 87 1000.5
20260502100424 79 45 0.0 0.0 0.00 0.00 0.00 88 1000.5
20260502091424 80 0 0.0 2.0 0.00 0.00 0.00 86 999.9
20260502090923 80 0 0.0 2.0 0.00 0.00 0.00 86 999.9
20260502090424 80 315 0.0 3.0 0.00 0.00 0.00 86 999.7
20260502071423 80 0 2.0 4.0 0.00 0.00 0.00 86 1000.6
20260502070922 80 0 0.0 3.0 0.00 0.00 0.00 86 1000.8
20260502070423 80 0 0.0 2.0 0.00 0.00 0.00 86 1001.0
20260502065923 80 45 1.0 2.0 0.00 0.00 0.00 86 1001.1
20260502065423 80 0 1.0 2.0 0.00 0.00 0.00 86 1001.0
20260502064923 80 45 1.0 3.0 0.00 0.00 0.00 86 1001.0
20260502064423 80 45 1.0 2.0 0.00 0.00 0.00 86 1000.9
20260502063923 80 45 0.0 4.0 0.00 0.00 0.00 86 1000.9
20260502063423 80 45 2.0 5.0 0.00 0.00 0.00 86 1000.8
20260502062922 80 45 3.0 5.0 0.00 0.00 0.00 86 1000.7
20260502062423 80 0 3.0 4.0 0.00 0.00 0.00 86 1000.9
20260502061923 80 45 2.0 5.0 0.00 0.00 0.00 86 1001.0
20260502061422 80 45 2.0 4.0 0.00 0.00 0.00 86 1001.0
20260502060923 80 90 2.0 4.0 0.00 0.00 0.00 86 1001.0
20260502060422 80 45 2.0 4.0 0.00 0.00 0.00 86 1001.0
20260502055922 80 45 2.0 5.0 0.00 0.00 0.00 86 1001.0
20260502055423 80 45 3.0 5.0 0.00 0.00 0.00 86 1000.9
20260502054922 80 45 2.0 4.0 0.00 0.00 0.00 86 1001.0
20260502054422 80 45 2.0 4.0 0.00 0.00 0.00 86 1001.2
20260502053922 80 45 2.0 4.0 0.00 0.00 0.00 86 1001.4
20260502053422 80 45 2.0 4.0 0.00 0.00 0.00 86 1001.5
20260502052923 80 45 2.0 5.0 0.00 0.00 0.00 86 1001.7
20260502052422 80 45 3.0 5.0 0.00 0.00 0.00 86 1001.9
20260502051922 80 45 3.0 5.0 0.00 0.00 0.00 86 1001.9
20260502051422 80 45 5.0 7.0 0.00 0.00 0.00 85 1001.9
20260502050922 80 45 2.0 5.0 0.00 0.00 0.00 85 1002.1
20260502050422 81 45 2.0 5.0 0.00 0.00 0.00 84 1002.2
20260502045922 81 45 2.0 4.0 0.00 0.00 0.00 84 1002.3
20260502045422 81 0 2.0 3.0 0.00 0.00 0.00 84 1002.3
20260502044920 81 0 2.0 2.0 0.00 0.00 0.00 84 1002.3
20260502044422 81 0 1.0 6.0 0.00 0.00 0.00 84 1002.2
20260502043920 81 0 2.0 5.0 0.00 0.00 0.00 84 1002.2
20260502043420 81 0 2.0 5.0 0.00 0.00 0.00 84 1002.2
20260502042920 81 0 2.0 3.0 0.00 0.00 0.00 84 1002.3
20260502042419 81 0 2.0 3.0 0.00 0.00 0.00 84 1002.4
20260502041917 81 45 0.0 2.0 0.00 0.00 0.00 84 1002.3
20260502041145 81 0 0.0 2.0 0.00 0.00 0.00 84 1002.3
20260502040645 81 180 1.0 2.0 0.00 0.00 0.00 84 1002.2
20260502040144 81 180 0.0 0.0 0.00 0.00 0.00 84 1002.1
20260502035645 81 0 0.0 1.0 0.00 0.00 0.00 84 1001.9
20260502035144 0 0 0.0 2.0 0.00 0.00 0.00 1001.7
20260502034644 81 315 0.0 4.0 0.00 0.00 0.00 84 1001.5
20260502034145 81 0 1.0 4.0 0.00 0.00 0.00 84 1001.4
20260502033645 81 0 1.0 3.0 0.00 0.00 0.00 84 1001.3
20260502033144 81 315 0.0 4.0 0.00 0.00 0.00 84 1001.1
20260502032644 81 0 1.0 3.0 0.00 0.00 0.00 84 1001.0
20260502032144 81 0 1.0 3.0 0.00 0.00 0.00 85 1000.9
20260502031643 81 0 1.0 4.0 0.00 0.00 0.00 85 1001.0
20260502031144 81 0 2.0 4.0 0.00 0.00 0.00 85 1000.9
20260502030644 81 0 2.0 4.0 0.00 0.00 0.00 85 1000.9
20260502030143 81 0 2.0 4.0 0.00 0.00 0.00 85 1000.9
20260502025644 81 0 2.0 4.0 0.00 0.00 0.00 85 1001.0
20260502025143 81 0 3.0 5.0 0.00 0.00 0.00 85 1001.0
20260502024644 81 45 2.0 5.0 0.00 0.00 0.00 85 1001.1
20260502024143 81 0 2.0 5.0 0.00 0.00 0.00 85 1001.1